Le nostre stazioni meteo in Italia

Pubblicità
Il mio iltempo24.it
Piacenza, Italia (16084): Temperatura & dewpoint: 04.04.2020 05:00:00 - 10.04.2020 05:00:00 (CEST)Piacenza, Italia (16084): velocità del vento: 04.04.2020 05:00:00 - 10.04.2020 05:00:00 (CEST)Piacenza, Italia (16084): direzione del vento: 04.04.2020 05:00:00 - 10.04.2020 05:00:00 (CEST)Piacenza, Italia (16084): reduced air pressure: 04.04.2020 05:00:00 - 10.04.2020 05:00:00 (CEST)Piacenza, Italia (16084): visibility: 04.04.2020 05:00:00 - 10.04.2020 05:00:00 (CEST)Piacenza, Italia (16084): ore di luce: 04.04.2020 05:00:00 - 10.04.2020 05:00:00 (CEST)
Data & Tempo tt [°C] td [°C] ff [km/h] ff [kn] dd ppp [hPa] vv [km] sd [min]
10.04.2020 05:00:00 - - - - - - - -
10.04.2020 04:00:00 - - - - - - - -
10.04.2020 03:00:00 - - - - - - - -
10.04.2020 02:00:00 - - - - - - - -
10.04.2020 01:00:00 - - - - - - - -
10.04.2020 00:00:00 - - - - - - - -
09.04.2020 23:00:00 - - - - - - - -
09.04.2020 22:00:00 - - - - - - - -
09.04.2020 21:00:00 - - - - - - - -
09.04.2020 20:00:00 18,8 -1,6 8 4 ESE 1019,8 15 36
09.04.2020 19:00:00 23,0 -7,0 13 7 E - 10 -
09.04.2020 18:00:00 24,0 -6,0 13 7 ENE - 10 -
09.04.2020 17:00:00 24,0 -6,1 5 3 SSE 1019,5 15 60
09.04.2020 16:00:00 24,0 -5,0 5 3 E - 10 -
09.04.2020 15:00:00 23,0 -3,0 8 4 ENE - 10 -
09.04.2020 14:00:00 22,4 -3,1 5 3 ENE 1021,5 15 60
09.04.2020 13:00:00 21,0 0,0 5 3 NE - 10 -
09.04.2020 12:00:00 20,0 2,0 4 2 NE - 10 -
09.04.2020 11:00:00 18,4 2,7 5 3 N 1023,3 15 60
09.04.2020 10:00:00 16,0 3,0 5 3 S - 10 -
09.04.2020 09:00:00 13,0 4,0 11 6 O - 10 -
09.04.2020 08:00:00 7,0 7,0 13 7 O 1023,4 20 24
09.04.2020 07:00:00 - - - - - - - -
09.04.2020 06:00:00 - - - - - - - -
09.04.2020 05:00:00 - - - - - - - -
09.04.2020 04:00:00 - - - - - - - -
09.04.2020 03:00:00 - - - - - - - -
09.04.2020 02:00:00 - - - - - - - -
09.04.2020 01:00:00 - - - - - - - -
09.04.2020 00:00:00 - - - - - - - -
08.04.2020 23:00:00 - - - - - - - -
08.04.2020 22:00:00 - - - - - - - -
08.04.2020 21:00:00 - - - - - - - -
08.04.2020 20:00:00 18,2 -2,7 8 4 ESE 1022,9 18 30
08.04.2020 19:00:00 21,0 -8,0 11 6 ESE - 10 -
08.04.2020 18:00:00 22,0 -7,0 15 8 ESE - 10 -
08.04.2020 17:00:00 22,4 -6,4 16 9 ESE 1023,6 20 60
08.04.2020 16:00:00 22,0 -7,0 13 7 E - 10 -
08.04.2020 15:00:00 20,0 -7,0 15 8 SE - 10 -
08.04.2020 14:00:00 19,4 -4,1 13 7 ESE 1026,0 18 60
08.04.2020 13:00:00 18,0 -4,0 9 5 ENE - 10 -
08.04.2020 12:00:00 17,0 0,0 8 4 E - 10 -
08.04.2020 11:00:00 16,2 -0,1 5 3 NNE 1027,6 18 60
08.04.2020 10:00:00 14,0 2,0 4 2 O - 10 -
08.04.2020 09:00:00 10,0 5,0 8 4 O - 10 -
08.04.2020 08:00:00 4,0 4,0 11 6 O 1028,2 15 12
08.04.2020 07:00:00 - - - - - - - -
08.04.2020 06:00:00 - - - - - - - -
08.04.2020 05:00:00 - - - - - - - -
08.04.2020 04:00:00 - - - - - - - -
08.04.2020 03:00:00 - - - - - - - -
08.04.2020 02:00:00 - - - - - - - -
08.04.2020 01:00:00 - - - - - - - -
08.04.2020 00:00:00 - - - - - - - -
07.04.2020 23:00:00 - - - - - - - -
07.04.2020 22:00:00 - - - - - - - -
07.04.2020 21:00:00 - - - - - - - -
07.04.2020 20:00:00 16,0 2,4 8 4 ESE 1026,6 10 24
07.04.2020 19:00:00 19,0 -1,0 11 6 ESE - 10 -
07.04.2020 18:00:00 20,0 -1,0 13 7 SE - 10 -
07.04.2020 17:00:00 20,8 -0,5 16 9 E 1026,5 10 60
07.04.2020 16:00:00 21,0 0,0 9 5 NE - 10 -
07.04.2020 15:00:00 20,0 0,0 5 3 ESE - 10 -
07.04.2020 14:00:00 19,6 4,9 5 3 NNE 1028,0 10 60
07.04.2020 13:00:00 18,0 6,0 4 2 NNO - 10 -
07.04.2020 12:00:00 17,0 7,0 5 3 NE - 10 -
07.04.2020 11:00:00 15,4 7,4 5 3 NNE 1029,3 10 60
07.04.2020 10:00:00 14,0 8,0 5 3 N - 10 -
07.04.2020 09:00:00 10,0 7,0 11 6 O - 10 -
07.04.2020 08:00:00 6,8 6,8 13 7 O 1028,6 12 12
07.04.2020 07:00:00 - - - - - - - -
07.04.2020 06:00:00 - - - - - - - -
07.04.2020 05:00:00 - - - - - - - -
07.04.2020 04:00:00 - - - - - - - -
07.04.2020 03:00:00 - - - - - - - -
07.04.2020 02:00:00 - - - - - - - -
07.04.2020 01:00:00 - - - - - - - -
07.04.2020 00:00:00 - - - - - - - -
06.04.2020 23:00:00 - - - - - - - -
06.04.2020 22:00:00 - - - - - - - -
06.04.2020 21:00:00 - - - - - - - -
06.04.2020 20:00:00 16,0 5,6 0 0 N 1024,8 15 18
06.04.2020 19:00:00 19,0 2,0 9 5 E - 10 -
06.04.2020 18:00:00 19,0 1,0 8 4 E - 10 -
06.04.2020 17:00:00 20,0 1,4 8 4 ESE 1025,2 15 60
06.04.2020 16:00:00 20,0 2,0 15 8 ESE - 10 -
06.04.2020 15:00:00 19,0 2,0 15 8 ESE - 10 -
06.04.2020 14:00:00 19,0 2,4 15 8 E 1026,0 15 60
06.04.2020 13:00:00 18,0 3,0 11 6 E - 10 -
06.04.2020 12:00:00 17,0 4,0 13 7 E - 10 -
06.04.2020 11:00:00 14,8 3,6 8 4 ENE 1026,7 15 60
06.04.2020 10:00:00 13,0 5,0 4 2 NE - 10 -
06.04.2020 09:00:00 9,0 6,0 11 6 O - 10 -
06.04.2020 08:00:00 4,0 2,4 11 6 OSO 1026,1 12 6
06.04.2020 07:00:00 - - - - - - - -
06.04.2020 06:00:00 - - - - - - - -
06.04.2020 05:00:00 - - - - - - - -
06.04.2020 04:00:00 - - - - - - - -
06.04.2020 03:00:00 - - - - - - - -
06.04.2020 02:00:00 - - - - - - - -
06.04.2020 01:00:00 - - - - - - - -
06.04.2020 00:00:00 - - - - - - - -
05.04.2020 23:00:00 - - - - - - - -
05.04.2020 22:00:00 - - - - - - - -
05.04.2020 21:00:00 - - - - - - - -
05.04.2020 20:00:00 12,6 1,3 5 3 S 1022,6 18 18
05.04.2020 19:00:00 16,0 -3,0 11 6 SE - 10 -
05.04.2020 18:00:00 17,0 -3,0 15 8 SE - 10 -
05.04.2020 17:00:00 17,0 -2,1 16 9 ESE 1022,1 16 60
05.04.2020 16:00:00 17,0 -1,0 15 8 ESE - 10 -
05.04.2020 15:00:00 17,0 -1,0 18 10 ESE - 10 -
05.04.2020 14:00:00 16,4 -1,2 16 9 ESE 1023,9 16 60
05.04.2020 13:00:00 15,0 -2,0 21 11 ESE - 10 -
05.04.2020 12:00:00 14,0 -1,0 16 9 ESE - 10 -
05.04.2020 11:00:00 13,6 -0,4 16 9 SE 1025,2 16 60
05.04.2020 10:00:00 13,0 0,0 15 8 SE - 10 -
05.04.2020 09:00:00 8,0 6,0 4 2 OSO - 10 -
05.04.2020 08:00:00 3,6 2,4 8 4 OSO 1025,1 15 6
05.04.2020 07:00:00 - - - - - - - -
05.04.2020 06:00:00 - - - - - - - -
05.04.2020 05:00:00 - - - - - - - -
05.04.2020 04:00:00 - - - - - - - -
05.04.2020 03:00:00 - - - - - - - -
05.04.2020 02:00:00 - - - - - - - -
05.04.2020 01:00:00 - - - - - - - -
05.04.2020 00:00:00 - - - - - - - -
04.04.2020 23:00:00 - - - - - - - -
04.04.2020 22:00:00 - - - - - - - -
04.04.2020 21:00:00 - - - - - - - -
04.04.2020 20:00:00 13,0 -0,6 5 3 ESE 1019,7 15 6
04.04.2020 19:00:00 16,0 -9,0 11 6 E - 10 -
04.04.2020 18:00:00 17,0 -7,0 8 4 ESE - 10 -
04.04.2020 17:00:00 17,2 -8,0 8 4 E 1019,0 14 60
04.04.2020 16:00:00 17,0 -7,0 5 3 ONO - 10 -
04.04.2020 15:00:00 17,0 -4,0 9 5 ENE - 10 -
04.04.2020 14:00:00 15,8 -0,8 4 2 S 1020,5 14 60
04.04.2020 13:00:00 15,0 0,0 2 1 S - 10 -
04.04.2020 12:00:00 14,0 1,0 4 2 NNO - 10 -
04.04.2020 11:00:00 12,0 1,0 2 1 NNE 1021,7 14 60
04.04.2020 10:00:00 10,0 0,0 5 3 NE - 10 -
04.04.2020 09:00:00 6,0 1,0 4 2 ONO - 10 -
04.04.2020 08:00:00 1,6 1,6 11 6 OSO 1020,1 14 6
04.04.2020 07:00:00 - - - - - - - -
04.04.2020 06:00:00 - - - - - - - -
04.04.2020 05:00:00 - - - - - - - -

tt = Temperatura
td = dewpoint
ff = velocità del vento
dd = direzione del vento
ppp = reduced air pressure
vv = visibility
sd = ore di luce

Stazioni seguenti

WeatherPro
AMSI
MeteoEarth